Location: Unspecified
(42.7170°S, 0.0000°E)
Time: 06:49:29
(UTC+00:00)

Envisat - Visible Passes

Search period start: 25 May 2019 00:00
Search period end: 04 June 2019 00:00
Orbit: 764 x 766 km, 98.2° (Epoch: 24 May)

Date Brightness Start Highest point End Pass type
(mag) Time Alt. Az. Time Alt. Az. Time Alt. Az.
25 May 5.7 04:56:15 10° E 04:59:03 15° ESE 05:01:53 10° SSE visible
25 May 3.0 06:32:18 10° N 06:37:25 77° WNW 06:42:36 10° SSW visible
25 May 5.0 18:49:11 15° NNE 18:49:11 15° NNE 18:50:08 10° NNE visible
26 May 4.0 05:55:49 10° NE 06:00:44 50° ESE 06:05:43 10° S visible
26 May 5.4 19:52:12 14° NNW 19:52:12 14° NNW 19:52:53 10° NNW visible
27 May 5.2 05:20:12 10° ENE 05:24:16 24° ESE 05:28:21 10° SSE visible
27 May 5.0 19:15:01 17° N 19:15:01 17° N 19:16:10 10° N visible
28 May 5.8 04:46:07 10° E 04:48:00 12° ESE 04:49:53 10° SE visible
28 May 3.1 06:21:04 10° NNE 06:26:11 85° ESE 06:31:23 10° SSW visible
28 May 5.0 18:37:50 13° NNE 18:37:50 13° NNE 18:38:32 10° NNE visible
29 May 4.3 05:44:50 10° NE 05:49:34 40° ESE 05:54:22 10° S visible
29 May 5.3 19:40:52 15° NNW 19:40:52 15° NNW 19:41:45 10° NNW visible
30 May 5.4 05:09:32 10° ENE 05:13:09 20° ESE 05:16:48 10° SSE visible
30 May 3.2 06:46:43 10° N 06:51:44 56° W 06:56:49 10° SSW visible
30 May 5.0 19:03:39 17° NNE 19:03:39 17° NNE 19:04:47 10° N visible
31 May 3.4 06:09:54 10° NNE 06:14:58 68° ESE 06:20:07 10° S visible
31 May 5.1 18:26:28 11° NE 18:26:28 11° NE 18:26:48 10° NE visible
31 May 5.7 20:06:40 11° NW 20:06:40 11° NW 20:06:56 10° NW visible
01 Jun 4.7 05:33:55 10° NE 05:38:25 32° ESE 05:42:58 10° S visible
01 Jun 5.1 19:29:28 17° NNW 19:29:28 17° NNW 19:30:33 10° NNW visible
02 Jun 5.7 04:58:59 10° E 05:02:04 16° ESE 05:05:09 10° SSE visible
02 Jun 3.0 06:35:23 10° N 06:40:29 71° WNW 06:45:39 10° SSW visible
02 Jun 5.0 18:52:16 16° NNE 18:52:16 16° NNE 18:53:18 10° NNE visible
03 Jun 3.8 05:58:48 10° NNE 06:03:47 54° ESE 06:08:49 10° S visible
03 Jun 5.5 19:55:16 14° NNW 19:55:16 14° NNW 19:55:54 10° NNW visible
